Regional Weather Roundup
Issued by NWS Mobile, AL

Home | Current Version | Previous Version | Text Only | Print | Product List | Glossary On
Versions: 1 2 3 4 5 6 7 8 9 10 11 12 13 14 15 16 17 18 19 20 21 22 23 24 25 26 27 28 29 30 31 32 33 34 35 36 37 38 39 40 41 42 43 44 45 46 47 48 49 50
000
ASUS44 KMOB 291617
RWRMOB
REGIONAL WEATHER ROUNDUP
NATIONAL WEATHER SERVICE MOBILE AL
1100 AM CDT WED JUL 29 2015

ALZ061>064-291700-
COASTAL ALABAMA


CITY           SKY/WX    TMP DP  RH WIND       PRES   REMARKS
MOBILE REG APT PTSUNNY   91  77  63 W6        30.03F HX 104
BROOKLEY FIELD SUNNY     92  76  59 VRB5      30.02F HX 104
GULF SHORES    MOSUNNY   90  77  66 N6        30.01S HX 103

$$

ALZ051>060-291700-
INTERIOR SOUTHWEST AND SOUTH CENTRAL ALABAMA


CITY           SKY/WX    TMP DP  RH WIND       PRES   REMARKS
ANDALUSIA/OPP  SUNNY     98  75  47 E6        30.00F HX 110
EVERGREEN      SUNNY     95  76  53 VRB3      30.01F HX 108
FLORALA        SUNNY     93  75  55 N5        30.02F HX 104
GREENVILLE     FAIR      94  73  50 NW8       30.01S HX 103

$$

FLZ001>006-291700-
WESTERN FLORIDA PANHANDLE


CITY           SKY/WX    TMP DP  RH WIND       PRES   REMARKS
CRESTVIEW      FAIR      93  77  59 NW9       30.01F HX 107
DESTIN         SUNNY     92  76  59 N6        29.99F HX 104
DUKE FIELD     PTSUNNY   92  76  59 NW9       30.00S HX 103
MARY ESTHER    SUNNY     95  74  51 N9        29.98S HX 105
MILTON         PTSUNNY   95  76  53 N9        30.00F HX 108
PENSACOLA      SUNNY     92  76  59 N8        30.00F HX 104
NAS PENSACOLA  PTSUNNY   91  76  61 NW6       29.99F HX 103
VALPARAISO     PTSUNNY   93  76  58 N9        30.00S HX 106

$$

...MARINE OBSERVATIONS...

STATION/POSITION TIME  SKY/WX   TEMP    WIND        PRES    VSBY
                                AIR SEA DIR/SP/G
                 (UTC)          (F)     (DEG/KT/KT) (MB)    (MI)
PASCAGOULA       1500            87     260/  7/  9 1016.8F
PETIT BOIS ISL   1500            85     280/ 10/ 11 1017.4S
E DAUPHIN ISLAND 1600            87     280/ 10/ 11 1016.2F
MIDDLE BAY LIGHT 1500            85     320/ 10     1016.6R
USCG MOBILE BAY  1500            87 85  320/  4/  7 1015.6F
STATE DOCKS      1500            90 85              1016.4F
MEAHER PARK      1600            89     250/  4     1014.9F
12 S ORANGE BCH  1550            84 84  300/ 12/ 14 1015.5F
WVE H/P(F/S)=  2/ 4

PENSACOLA BAY    1500            89 82  330/  7/ 11 1016.2F
64 S DAUPHIN ISL 1550            85 88  310/ 10/ 12 1017.2R
WVE H/P(F/S)=  2/ 3

67 S FORT MORGAN 1530            87     330/ 14     1016.9R
115 SE PENSACOLA 1550            87 87  340/ 14/ 16 1016.4R
WVE H/P(F/S)=  2/ 4

MID GULF/42001   1550            85 85  300/  4/  6 1018.4R
WVE H/P(F/S)=  1/ 4

EAST GULF/42003  1550            78 84  330/  2/  6 1018.2R
WVE H/P(F/S)=  2/ 8


$$

...NEARBY LOCATIONS

CITY           SKY/WX    TMP DP  RH WIND       PRES   REMARKS
GULFPORT       MOSUNNY   91  75  59 NW5       30.02F HX 101
BILOXI         MOSUNNY   89  78  68 VRB2      30.02F HX 102
PASCAGOULA     MOSUNNY   91  77  63 NW6       30.02F HX 104
HATTIESBURG    SUNNY     92  73  53 NW9       30.04S HX 100
LAUREL         SUNNY     97  72  44 N10G17    30.06S HX 105
MERIDIAN       SUNNY     93  75  55 NW10      30.04S HX 104
MERIDIAN NAS   MOSUNNY   93  75  55 N8        30.03F HX 104
MONTGOMERY     SUNNY     94  76  55 NW7       30.01S HX 106
MAXWELL AFB    SUNNY     92  78  62 W5        30.00S HX 106
TROY           SUNNY     95  74  50 N8        30.02S HX 105
FORT RUCKER    SUNNY     94  74  52 VRB3      29.99F HX 104
DALEVILLE      SUNNY     93  76  57 N8        30.00F HX 104
DOTHAN         SUNNY     92  74  55 N8        30.03F HX 101

$$

...OTHER SURROUNDING LOCATIONS...

CITY           SKY/WX    TMP DP  RH WIND       PRES   REMARKS
BIRMINGHAM     PTSUNNY   86  75  69 N10       30.06S HX  95
TUSCALOOSA     SUNNY     94  74  52 N13       30.02S HX 104
COLUMBUS GA    SUNNY     92  71  50 CALM      30.00S HX  98
PANAMA CITY    NOT AVBL
TALLAHASSEE    PTSUNNY   93  76  57 N8        29.98F HX 105
BATON ROUGE    SUNNY     91  75  59 NW7       30.05S HX 101
NEW ORLEANS    PTSUNNY   90  75  61 N9        30.04S HX 100
SLIDELL        MOSUNNY   92  77  61 N9        30.03F HX 105
JACKSON        MOSUNNY   96  69  41 N10       30.06R HX 102
MCCOMB         SUNNY     92  74  55 NW10      30.05F HX 101

$$

...SURROUNDING MARINE OBSERVATIONS...

STATION/POSITION TIME  SKY/WX   TEMP    WIND        PRES    VSBY
                                AIR SEA DIR/SP/G
                 (UTC)          (F)     (DEG/KT/KT) (MB)    (MI)
WAVELAND         1500            85 88  340/  8/ 10 1017.5R
PASCAGOULA RGN A 1500            87     280/  5/  7 1016.4F
PASCAGOULA PORT  1500               85                N/A
GRAND ISLE       1500            87 90  360/ 10/ 13 1017.6R
SOUTHWEST PASS   1600            87     360/ 12/ 14 1017.6F
PILOT STATION E  1500            88 86  360/ 13/ 15 1017.9R
SHELL BEACH      1500            86 88  310/ 12/ 14 1016.8R
PANAMA CITY      1500            88 85  340/  5/  7 1015.3S
APALACHICOLA     1500            89 89  340/  5/  7 1015.5S
TYNDALL TOWER C  1600            85     300/ 10/ 11 1015.4S
S APLCHCLA/42036 1550            87 85  320/ 10/ 12 1015.9R
WVE H/P(F/S)=  2/ 4


$$



USA.gov is the U.S. government's official web portal to all federal, state and local government web resources and services.